BEL5LY EBBR-LSZH

Flight info

Callsign BEL5LY
Flight time 0h 59m
Altitude 31000
Route ROUSY DCT GTQ DCT BAMEV DCT BLM
Aircraft A319/M-DE3FGIJ1LORVWY/H

Departure

Time 2026-05-05 16:20
Airport Brussels Airport (EBBR)

Arrival

Time 2026-05-05 17:19
Airport Zürich Airport (LSZH)
Time Latitude Longitude Altitude Speed Heading
2026-05-05 15:23 50.90365 4.48879 121 ft 0 kts 335°
2026-05-05 16:10 50.90364 4.48879 121 ft 2 kts 335°
2026-05-05 16:10 50.90349 4.48890 117 ft 2 kts 340°
2026-05-05 16:11 50.90334 4.48899 117 ft 2 kts 343°
2026-05-05 16:11 50.90286 4.48902 120 ft 2 kts 38°
2026-05-05 16:12 50.90275 4.48884 121 ft 2 kts 63°
2026-05-05 16:12 50.90272 4.48876 122 ft 0 kts 66°
2026-05-05 16:14 50.90280 4.48901 121 ft 5 kts 65°
2026-05-05 16:15 50.90328 4.49064 120 ft 9 kts 65°
2026-05-05 16:15 50.90388 4.49275 122 ft 12 kts 65°
2026-05-05 16:16 50.90365 4.49525 122 ft 14 kts 150°
2026-05-05 16:16 50.90185 4.49482 128 ft 14 kts 194°
2026-05-05 16:17 50.89967 4.49393 133 ft 21 kts 194°
2026-05-05 16:17 50.89819 4.49332 142 ft 23 kts 194°
2026-05-05 16:18 50.89589 4.49207 156 ft 13 kts 212°
2026-05-05 16:18 50.89505 4.49164 160 ft 13 kts 194°
2026-05-05 16:18 50.89325 4.49090 167 ft 15 kts 194°
2026-05-05 16:19 50.89223 4.49050 174 ft 15 kts 194°
2026-05-05 16:19 50.89139 4.49001 177 ft 8 kts 166°
2026-05-05 16:19 50.89210 4.49366 176 ft 65 kts 70°
2026-05-05 16:20 50.89804 4.51926 831 ft 144 kts 66°
2026-05-05 16:20 50.90664 4.54734 2576 ft 140 kts 59°
2026-05-05 16:21 50.91574 4.57559 4033 ft 159 kts 59°
2026-05-05 16:22 50.93210 4.62599 5695 ft 227 kts 62°
2026-05-05 16:22 50.94430 4.67768 7244 ft 268 kts 73°
2026-05-05 16:23 50.95368 4.73624 9295 ft 280 kts 86°
2026-05-05 16:23 50.95161 4.76716 10248 ft 286 kts 105°
2026-05-05 16:23 50.92795 4.82098 11372 ft 324 kts 140°
2026-05-05 16:24 50.91025 4.84370 12198 ft 327 kts 140°
2026-05-05 16:24 50.89232 4.86394 13733 ft 308 kts 149°
2026-05-05 16:24 50.85391 4.88417 15876 ft 291 kts 173°
2026-05-05 16:25 50.83376 4.88724 16774 ft 290 kts 173°
2026-05-05 16:25 50.79308 4.89342 18382 ft 297 kts 174°
2026-05-05 16:25 50.77248 4.89674 19089 ft 299 kts 173°
2026-05-05 16:26 50.73418 4.92350 20593 ft 304 kts 150°
2026-05-05 16:26 50.69877 4.95815 22421 ft 292 kts 149°
2026-05-05 16:27 50.68176 4.97485 23404 ft 287 kts 149°
2026-05-05 16:27 50.66419 4.99203 23561 ft 307 kts 149°
2026-05-05 16:27 50.64541 5.01030 23685 ft 327 kts 149°
2026-05-05 16:27 50.62550 5.02961 23804 ft 345 kts 149°
2026-05-05 16:28 50.60452 5.04994 23919 ft 363 kts 149°
2026-05-05 16:28 50.58251 5.07126 24035 ft 380 kts 149°
2026-05-05 16:28 50.55967 5.09338 24313 ft 390 kts 149°
2026-05-05 16:28 50.53646 5.11589 24763 ft 394 kts 149°
2026-05-05 16:29 50.51311 5.13855 25343 ft 394 kts 149°
2026-05-05 16:29 50.48973 5.16116 25878 ft 396 kts 149°
2026-05-05 16:29 50.46616 5.18392 26385 ft 398 kts 149°
2026-05-05 16:29 50.44249 5.20674 26883 ft 400 kts 149°
2026-05-05 16:30 50.41870 5.22960 27375 ft 403 kts 149°
2026-05-05 16:30 50.39475 5.25260 27866 ft 405 kts 149°
2026-05-05 16:30 50.37063 5.27573 28352 ft 407 kts 149°
2026-05-05 16:30 50.34639 5.29900 28826 ft 410 kts 149°
2026-05-05 16:31 50.32200 5.32243 29300 ft 412 kts 149°
2026-05-05 16:31 50.29747 5.34595 29762 ft 415 kts 149°
2026-05-05 16:31 50.27282 5.36954 30208 ft 416 kts 149°
2026-05-05 16:31 50.24808 5.39314 30604 ft 417 kts 149°
2026-05-05 16:32 50.22328 5.41674 30804 ft 418 kts 149°
2026-05-05 16:32 50.19880 5.43997 30838 ft 403 kts 149°
2026-05-05 16:32 50.17532 5.46225 30841 ft 391 kts 149°
2026-05-05 16:32 50.15224 5.48412 30840 ft 386 kts 149°
2026-05-05 16:33 50.10611 5.52785 30832 ft 386 kts 149°
2026-05-05 16:33 50.06024 5.57125 30843 ft 386 kts 149°
2026-05-05 16:34 50.01431 5.61460 30828 ft 386 kts 149°
2026-05-05 16:34 49.96841 5.65785 30823 ft 386 kts 149°
2026-05-05 16:35 49.92251 5.70096 30825 ft 386 kts 149°
2026-05-05 16:35 49.87659 5.74402 30817 ft 385 kts 149°
2026-05-05 16:36 49.83072 5.78689 30814 ft 385 kts 149°
2026-05-05 16:36 49.78481 5.82962 30831 ft 385 kts 148°
2026-05-05 16:37 49.73896 5.87235 30831 ft 384 kts 148°
2026-05-05 16:37 49.69318 5.91491 30809 ft 385 kts 149°
2026-05-05 16:38 49.64727 5.95748 30812 ft 385 kts 149°
2026-05-05 16:38 49.60125 6.00005 30814 ft 386 kts 149°
2026-05-05 16:39 49.55516 6.04258 30832 ft 387 kts 148°
2026-05-05 16:39 49.50900 6.08507 30828 ft 386 kts 148°
2026-05-05 16:40 49.46412 6.13017 30822 ft 385 kts 141°
2026-05-05 16:40 49.42221 6.18225 30818 ft 385 kts 141°
2026-05-05 16:41 49.38052 6.23391 30814 ft 385 kts 141°
2026-05-05 16:41 49.33879 6.28551 30804 ft 386 kts 141°
2026-05-05 16:42 49.29673 6.33742 30812 ft 389 kts 141°
2026-05-05 16:42 49.25463 6.38920 30800 ft 387 kts 141°
2026-05-05 16:43 49.21260 6.44080 30807 ft 388 kts 141°
2026-05-05 16:43 49.17046 6.49233 30809 ft 388 kts 141°
2026-05-05 16:44 49.12830 6.54385 30811 ft 388 kts 141°
2026-05-05 16:44 49.08600 6.59532 30812 ft 389 kts 141°
2026-05-05 16:45 49.04368 6.64662 30799 ft 390 kts 142°
2026-05-05 16:45 49.00114 6.69806 30800 ft 391 kts 143°
2026-05-05 16:46 48.95303 6.73616 30801 ft 391 kts 158°
2026-05-05 16:46 48.90221 6.76627 30809 ft 393 kts 158°
2026-05-05 16:47 48.85130 6.79647 30824 ft 392 kts 159°
2026-05-05 16:47 48.80062 6.82642 30835 ft 391 kts 159°
2026-05-05 16:48 48.74968 6.85658 30825 ft 390 kts 159°
2026-05-05 16:48 48.69910 6.88638 30828 ft 390 kts 159°
2026-05-05 16:49 48.64853 6.91603 30823 ft 390 kts 159°
2026-05-05 16:49 48.59796 6.94559 30823 ft 390 kts 159°
2026-05-05 16:50 48.54738 6.97517 30805 ft 390 kts 159°
2026-05-05 16:50 48.49667 7.00483 30811 ft 391 kts 159°
2026-05-05 16:51 48.44591 7.03443 30816 ft 392 kts 159°
2026-05-05 16:51 48.39509 7.06400 30838 ft 391 kts 159°
2026-05-05 16:52 48.34438 7.09339 30844 ft 390 kts 159°
2026-05-05 16:52 48.29375 7.12267 30680 ft 390 kts 159°
2026-05-05 16:53 48.26843 7.13728 30431 ft 390 kts 159°
2026-05-05 16:53 48.24307 7.15191 30185 ft 390 kts 159°
2026-05-05 16:53 48.21772 7.16654 29937 ft 391 kts 159°
2026-05-05 16:53 48.19229 7.18119 29665 ft 392 kts 159°
2026-05-05 16:54 48.16685 7.19582 29382 ft 392 kts 159°
2026-05-05 16:54 48.14134 7.21048 29099 ft 393 kts 159°
2026-05-05 16:54 48.11583 7.22513 28808 ft 392 kts 159°
2026-05-05 16:54 48.09045 7.23967 28533 ft 391 kts 159°
2026-05-05 16:55 48.06513 7.25418 28242 ft 389 kts 160°
2026-05-05 16:55 48.04799 7.26398 28059 ft 389 kts 160°
2026-05-05 16:55 48.01475 7.28296 27497 ft 383 kts 160°
2026-05-05 16:55 47.99800 7.29249 27172 ft 381 kts 160°
2026-05-05 16:56 47.97331 7.30656 26682 ft 378 kts 160°
2026-05-05 16:56 47.94885 7.32052 26214 ft 375 kts 160°
2026-05-05 16:56 47.92453 7.33441 25752 ft 373 kts 160°
2026-05-05 16:56 47.90033 7.34821 25317 ft 371 kts 160°
2026-05-05 16:57 47.87627 7.36189 24878 ft 369 kts 161°
2026-05-05 16:57 47.85233 7.37551 24420 ft 368 kts 161°
2026-05-05 16:57 47.82842 7.38908 23965 ft 367 kts 161°
2026-05-05 16:57 47.80460 7.40256 23486 ft 366 kts 161°
2026-05-05 16:58 47.78077 7.41605 22940 ft 366 kts 161°
2026-05-05 16:58 47.75710 7.42946 22446 ft 363 kts 161°
2026-05-05 16:58 47.73357 7.44276 21954 ft 360 kts 161°
2026-05-05 16:58 47.71018 7.45593 21464 ft 358 kts 161°
2026-05-05 16:59 47.68698 7.46899 20970 ft 356 kts 162°
2026-05-05 16:59 47.66429 7.48330 20469 ft 355 kts 154°
2026-05-05 16:59 47.64415 7.50471 19965 ft 358 kts 140°
2026-05-05 16:59 47.62823 7.53303 19626 ft 359 kts 126°
2026-05-05 17:00 47.61718 7.56693 19388 ft 364 kts 112°
2026-05-05 17:00 47.60887 7.60266 19141 ft 367 kts 112°
2026-05-05 17:00 47.60062 7.63784 18886 ft 367 kts 112°
2026-05-05 17:00 47.59212 7.67402 18622 ft 367 kts 112°
2026-05-05 17:01 47.58374 7.70960 18363 ft 366 kts 112°
2026-05-05 17:01 47.57534 7.74516 18093 ft 365 kts 112°
2026-05-05 17:01 47.56697 7.78062 17812 ft 364 kts 112°
2026-05-05 17:01 47.55863 7.81595 17573 ft 363 kts 112°
2026-05-05 17:02 47.55027 7.85114 17303 ft 361 kts 112°
2026-05-05 17:02 47.53991 7.88464 17035 ft 355 kts 123°
2026-05-05 17:02 47.52774 7.91644 16771 ft 354 kts 124°
2026-05-05 17:02 47.51571 7.94803 16512 ft 352 kts 124°
2026-05-05 17:03 47.50371 7.97960 16253 ft 351 kts 124°
2026-05-05 17:03 47.49178 8.01094 15995 ft 349 kts 124°
2026-05-05 17:03 47.47985 8.04211 15741 ft 348 kts 124°
2026-05-05 17:03 47.46797 8.07314 15488 ft 346 kts 124°
2026-05-05 17:04 47.45613 8.10396 15240 ft 345 kts 124°
2026-05-05 17:04 47.44424 8.13477 14994 ft 344 kts 124°
2026-05-05 17:04 47.43237 8.16549 14749 ft 343 kts 124°
2026-05-05 17:04 47.42062 8.19593 14510 ft 342 kts 124°
2026-05-05 17:05 47.40887 8.22640 14269 ft 340 kts 124°
2026-05-05 17:05 47.39719 8.25662 14030 ft 338 kts 124°
2026-05-05 17:05 47.38552 8.28675 13792 ft 337 kts 124°
2026-05-05 17:05 47.37392 8.31671 13543 ft 336 kts 124°
2026-05-05 17:06 47.36256 8.34696 13257 ft 338 kts 119°
2026-05-05 17:06 47.35433 8.37954 12996 ft 341 kts 108°
2026-05-05 17:06 47.35031 8.41405 12731 ft 342 kts 98°
2026-05-05 17:06 47.34798 8.44891 12488 ft 341 kts 98°
2026-05-05 17:07 47.34557 8.48366 12232 ft 340 kts 98°
2026-05-05 17:07 47.34312 8.51830 11974 ft 339 kts 99°
2026-05-05 17:07 47.34064 8.55279 11720 ft 337 kts 99°
2026-05-05 17:07 47.33813 8.58747 11415 ft 335 kts 99°
2026-05-05 17:08 47.33563 8.62147 10972 ft 333 kts 99°
2026-05-05 17:08 47.33316 8.65533 10537 ft 330 kts 99°
2026-05-05 17:08 47.33070 8.68889 10121 ft 329 kts 99°
2026-05-05 17:08 47.32828 8.72214 9884 ft 321 kts 99°
2026-05-05 17:09 47.32599 8.75430 9756 ft 310 kts 98°
2026-05-05 17:09 47.32375 8.78542 9542 ft 301 kts 98°
2026-05-05 17:09 47.32153 8.81588 9195 ft 298 kts 98°
2026-05-05 17:09 47.31931 8.84618 8822 ft 296 kts 98°
2026-05-05 17:10 47.31709 8.87618 8462 ft 294 kts 98°
2026-05-05 17:10 47.31489 8.90596 8050 ft 292 kts 98°
2026-05-05 17:10 47.31315 8.93571 7697 ft 290 kts 90°
2026-05-05 17:10 47.31703 8.96392 7546 ft 274 kts 68°
2026-05-05 17:11 47.32699 8.98684 7438 ft 263 kts 45°
2026-05-05 17:11 47.34136 9.00253 7313 ft 252 kts 24°
2026-05-05 17:11 47.35763 9.00968 7185 ft 240 kts
2026-05-05 17:11 47.37385 9.00874 7061 ft 227 kts 344°
2026-05-05 17:12 47.38824 9.00093 6932 ft 218 kts 326°
2026-05-05 17:12 47.40006 8.98744 6810 ft 213 kts 310°
2026-05-05 17:12 47.40868 8.96996 6685 ft 210 kts 298°
2026-05-05 17:12 47.41630 8.95155 6548 ft 210 kts 299°
2026-05-05 17:13 47.42401 8.93317 6360 ft 211 kts 299°
2026-05-05 17:13 47.43030 8.91396 6172 ft 206 kts 282°
2026-05-05 17:13 47.43292 8.89331 6083 ft 203 kts 276°
2026-05-05 17:13 47.43458 8.87301 5856 ft 197 kts 274°
2026-05-05 17:14 47.43607 8.85305 5570 ft 193 kts 274°
2026-05-05 17:14 47.43751 8.83356 5294 ft 189 kts 274°
2026-05-05 17:14 47.43892 8.81446 5024 ft 185 kts 274°
2026-05-05 17:14 47.44029 8.79572 4755 ft 183 kts 274°
2026-05-05 17:15 47.44165 8.77717 4497 ft 176 kts 274°
2026-05-05 17:15 47.44296 8.75938 4235 ft 171 kts 274°
2026-05-05 17:15 47.44422 8.74200 3988 ft 170 kts 273°
2026-05-05 17:15 47.44548 8.72482 3748 ft 164 kts 273°
2026-05-05 17:16 47.44663 8.70918 3517 ft 144 kts 273°
2026-05-05 17:16 47.44764 8.69515 3263 ft 131 kts 272°
2026-05-05 17:16 47.44858 8.68218 3079 ft 125 kts 272°
2026-05-05 17:16 47.44954 8.66945 2912 ft 124 kts 272°
2026-05-05 17:17 47.45043 8.65678 2721 ft 124 kts 273°
2026-05-05 17:17 47.45137 8.64411 2584 ft 125 kts 272°
2026-05-05 17:17 47.45225 8.63133 2397 ft 125 kts 273°
2026-05-05 17:17 47.45316 8.61867 2191 ft 125 kts 273°
2026-05-05 17:18 47.45404 8.60609 2015 ft 123 kts 273°
2026-05-05 17:18 47.45496 8.59345 1808 ft 124 kts 274°
2026-05-05 17:18 47.45588 8.58078 1625 ft 126 kts 274°
2026-05-05 17:18 47.45677 8.56788 1420 ft 125 kts 274°
2026-05-05 17:19 47.45753 8.55719 1397 ft 72 kts 276°
2026-05-05 17:19 47.45788 8.55214 1395 ft 24 kts 275°
2026-05-05 17:19 47.45835 8.55069 1396 ft 13 kts 335°
2026-05-05 17:19 47.45895 8.55101 1394 ft 8 kts 23°
2026-05-05 17:20 47.45955 8.55147 1395 ft 11 kts 28°
2026-05-05 17:20 47.45984 8.55240 1393 ft 10 kts 96°
2026-05-05 17:20 47.45976 8.55341 1399 ft 9 kts 96°
2026-05-05 17:20 47.45970 8.55434 1395 ft 9 kts 96°
2026-05-05 17:21 47.45963 8.55525 1400 ft 9 kts 96°
2026-05-05 17:21 47.45957 8.55618 1397 ft 9 kts 95°
2026-05-05 17:21 47.45954 8.55706 1398 ft 8 kts 76°
2026-05-05 17:22 47.46020 8.55734 1397 ft 5 kts
2026-05-05 17:22 47.46043 8.55737 1397 ft 1 kts
2026-05-05 17:22 47.46044 8.55737 1397 ft 0 kts